Location: Asheville, NC
(35.6000°N, 82.5500°W)
Time: 20:57:38
(UTC-05:00)

Vanguard 2 - Pass Details

Date: 16 December 2017
Orbit: 553 x 2939 km, 32.9° (Epoch: 21 January)

Event Time Altitude Azimuth Distance (km) Brightness Sun altitude
Rises 16:55:03 0° 265° (W) 4,477 12.8 3.3°
Reaches altitude 10° 16:58:41 10° 263° (W) 3,118 12.0 2.7°
Maximum altitude 17:05:45 68° 182° (S) 879 8.1 1.5°
Drops below altitude 10° 17:10:20 10° 99° (E) 2,051 9.3 0.7°
Sets 17:12:18 0° 97° (E) 2,842 10.0 0.3°
